Weather History for Flagstaff, AZ

Change the Weather History Date:

Tuesday, November 5, 2013

  Actual Average Record
Temperature  
Mean Temperature 32 °F 40 °F  
Max Temperature 45 °F 55 °F 70 °F (1950)
Min Temperature 18 °F 26 °F 1 °F (1922)
Degree Days  
Heating Degree Days 33 25  
Month to date heating degree days 134 120  
Since 1 July heating degree days 1067 1003  
Cooling Degree Days 0 0  
Month to date cooling degree days 0 0  
Year to date cooling degree days 148 117  
Moisture  
Dew Point 15 °F    
Average Humidity 54    
Maximum Humidity 78    
Minimum Humidity 30    
Precipitation  
Precipitation 0.00 in 0.06 in 0.71 in (1987)
Month to date precipitation 0.00 0.29  
Year to date precipitation 21.22 18.52  
Snow  
Snow 0.00 in 0.20 in 5.70 in (2011)
Month to date snowfall 0.0 1.0  
Since 1 July snowfall 0.6 2.5  
Snow Depth 0.00 in    
Sea Level Pressure  
Sea Level Pressure 30.08 in    
Wind  
Wind Speed 7 mph (ENE)    
Max Wind Speed 16 mph    
Max Gust Speed 21 mph    
Visibility 10 miles    
Events      
T = Trace of Precipitation, MM = Missing Value Source: NWS Daily Summary

Daily Weather History Graph

Daily Weather History Graph

Search for Another Location

Airport:

Trip Planner

Search our weather history database for the weather conditions in past years. The results will help you decide how hot, cold, wet, or windy it might be!

Date:

Astronomy

Nov. 05, 2013 Rise Set
Actual Time 6:51 AM MST 5:28 PM MST
Civil Twilight 6:25 AM MST 5:54 PM MST
Nautical Twilight 5:55 AM MST 6:24 PM MST
Astronomical Twilight 5:25 AM MST 6:54 PM MST
Moon 9:07 AM MST (11/5) 7:36 PM MST (11/5)
Length of Visible Light 11h 29m
Length of Day
10h 36m
Waxing Crescent, 7% of the Moon is Illuminated
Nov 5
Waxing Crescent
Nov 9
First Quarter
Nov 17
Full
Nov 25
Last Quarter
Dec 2
New

Hourly Weather History & Observations

Time (MST) Temp. Windchill Dew Point Humidity Pressure Visibility Wind Dir Wind Speed Gust Speed Precip Events Conditions
12:57 AM 30.9 °F - 19.9 °F 64% 29.86 in 10.0 mi Calm Calm - N/A   Scattered Clouds
1:57 AM 27.0 °F - 19.0 °F 72% 29.88 in 10.0 mi Calm Calm - N/A   Partly Cloudy
2:57 AM 26.1 °F - 18.0 °F 71% 29.88 in 10.0 mi Calm Calm - N/A   Clear
3:57 AM 24.1 °F - 17.1 °F 75% 29.92 in 10.0 mi Calm Calm - N/A   Clear
4:57 AM 28.0 °F 21.7 °F 21.0 °F 75% 29.94 in 10.0 mi East 5.8 mph - N/A   Overcast
5:57 AM 30.0 °F 23.2 °F 24.1 °F 79% 29.96 in 10.0 mi ENE 6.9 mph - N/A   Mostly Cloudy
6:57 AM 28.9 °F 21.9 °F 21.0 °F 72% 29.99 in 10.0 mi ENE 6.9 mph - N/A   Clear
7:57 AM 30.0 °F 22.4 °F 19.0 °F 64% 30.02 in 10.0 mi East 8.1 mph 18.4 mph N/A   Partly Cloudy
8:57 AM 33.1 °F 24.9 °F 18.0 °F 54% 30.07 in 10.0 mi ENE 10.4 mph 20.7 mph N/A   Partly Cloudy
9:57 AM 36.0 °F 26.7 °F 19.0 °F 50% 30.09 in 10.0 mi ENE 15.0 mph - N/A   Clear
10:57 AM 39.0 °F 32.3 °F 19.0 °F 45% 30.09 in 10.0 mi ENE 10.4 mph - N/A   Clear
11:57 AM 41.0 °F 35.2 °F 18.0 °F 40% 30.05 in 10.0 mi NE 9.2 mph - N/A   Clear
12:57 PM 42.1 °F 35.7 °F 17.1 °F 37% 30.06 in 10.0 mi East 11.5 mph - N/A   Clear
1:57 PM 44.1 °F 39.5 °F 16.0 °F 32% 30.07 in 10.0 mi ENE 8.1 mph 16.1 mph N/A   Clear
2:57 PM 45.0 °F 39.7 °F 16.0 °F 31% 30.09 in 10.0 mi NE 10.4 mph - N/A   Clear
3:57 PM 43.0 °F 36.4 °F 15.1 °F 32% 30.13 in 10.0 mi ENE 12.7 mph - N/A   Clear
4:57 PM 41.0 °F 36.4 °F 12.9 °F 32% 30.14 in 10.0 mi ENE 6.9 mph - N/A   Clear
5:57 PM 36.0 °F 29.6 °F 10.9 °F 36% 30.18 in 10.0 mi East 8.1 mph - N/A   Clear
6:57 PM 32.0 °F 26.4 °F 9.0 °F 38% 30.23 in 10.0 mi East 5.8 mph - N/A   Clear
7:57 PM 28.9 °F - 8.1 °F 41% 30.25 in 10.0 mi Calm Calm - N/A   Clear
8:57 PM 28.0 °F 21.7 °F 7.0 °F 41% 30.26 in 10.0 mi East 5.8 mph - N/A   Clear
9:57 PM 23.0 °F 17.0 °F 7.0 °F 50% 30.28 in 10.0 mi NE 4.6 mph - N/A   Clear
10:57 PM 21.0 °F - 6.1 °F 53% 30.29 in 10.0 mi Calm Calm - N/A   Clear
11:57 PM 27.0 °F 18.0 °F 3.0 °F 36% 30.26 in 10.0 mi East 9.2 mph - N/A   Clear